CFG9VK EGKK-EDDF

Flight info

Callsign CFG9VK
Flight time 1h 2m
Altitude 35000
Route DVR UL9 KONAN UL607 KOK DCT REMBA UL607 SPI T180 NIVNU/N0349F230 T847 IMCOM IMCOM1B
Aircraft A20N/M-SDE2E3FGHIRWXY/LB1

Departure

Time 2026-05-06 18:09
Airport London Gatwick Airport (EGKK)

Arrival

Time 2026-05-06 19:11
Airport Frankfurt Main Airport (EDDF)
Time Latitude Longitude Altitude Speed Heading
2026-05-06 16:27 51.15660 -0.17699 205 ft 0 kts 167°
2026-05-06 17:12 51.15660 -0.17700 205 ft 0 kts 167°
2026-05-06 17:43 51.15679 -0.17706 213 ft 4 kts 167°
2026-05-06 17:43 51.15701 -0.17714 205 ft 3 kts 168°
2026-05-06 17:43 51.15725 -0.17712 208 ft 4 kts 218°
2026-05-06 17:43 51.15738 -0.17682 212 ft 3 kts 258°
2026-05-06 17:44 51.15742 -0.17653 208 ft 0 kts 257°
2026-05-06 17:48 51.15740 -0.17672 211 ft 6 kts 257°
2026-05-06 17:48 51.15724 -0.17784 205 ft 15 kts 258°
2026-05-06 17:48 51.15700 -0.17964 208 ft 12 kts 258°
2026-05-06 17:49 51.15679 -0.18129 211 ft 18 kts 258°
2026-05-06 17:49 51.15640 -0.18333 207 ft 17 kts 223°
2026-05-06 17:49 51.15546 -0.18333 205 ft 16 kts 174°
2026-05-06 17:49 51.15423 -0.18292 210 ft 21 kts 170°
2026-05-06 17:50 51.15269 -0.18235 211 ft 23 kts 166°
2026-05-06 17:50 51.15202 -0.18252 211 ft 8 kts 229°
2026-05-06 17:50 51.15175 -0.18403 211 ft 17 kts 257°
2026-05-06 17:50 51.15142 -0.18639 213 ft 26 kts 258°
2026-05-06 17:51 51.15117 -0.18846 211 ft 31 kts 257°
2026-05-06 17:51 51.15072 -0.19199 214 ft 34 kts 257°
2026-05-06 17:51 51.15016 -0.19584 211 ft 35 kts 259°
2026-05-06 17:51 51.14959 -0.20007 204 ft 31 kts 250°
2026-05-06 17:52 51.14932 -0.20171 206 ft 21 kts 262°
2026-05-06 17:52 51.14897 -0.20423 214 ft 26 kts 259°
2026-05-06 17:52 51.14857 -0.20727 204 ft 30 kts 257°
2026-05-06 17:52 51.14819 -0.21004 205 ft 26 kts 257°
2026-05-06 17:53 51.14786 -0.21175 211 ft 1 kts 249°
2026-05-06 17:53 51.14774 -0.21227 206 ft 9 kts 249°
2026-05-06 17:53 51.14768 -0.21259 212 ft 0 kts 266°
2026-05-06 17:55 51.14768 -0.21277 205 ft 5 kts 270°
2026-05-06 17:56 51.14764 -0.21329 205 ft 0 kts 258°
2026-05-06 17:56 51.14763 -0.21335 205 ft 3 kts 258°
2026-05-06 17:57 51.14742 -0.21396 216 ft 9 kts 224°
2026-05-06 17:57 51.14732 -0.21403 212 ft 0 kts 193°
2026-05-06 18:05 51.14731 -0.21403 177 ft 1 kts 193°
2026-05-06 18:05 51.14699 -0.21398 205 ft 8 kts 165°
2026-05-06 18:05 51.14642 -0.21341 212 ft 10 kts 157°
2026-05-06 18:06 51.14624 -0.21333 212 ft 0 kts 167°
2026-05-06 18:07 51.14613 -0.21329 211 ft 5 kts 167°
2026-05-06 18:07 51.14561 -0.21302 208 ft 11 kts 154°
2026-05-06 18:07 51.14517 -0.21188 208 ft 14 kts 92°
2026-05-06 18:08 51.14522 -0.21156 206 ft 0 kts 75°
2026-05-06 18:08 51.14545 -0.20991 211 ft 60 kts 77°
2026-05-06 18:08 51.14717 -0.19764 227 ft 159 kts 76°
2026-05-06 18:09 51.14947 -0.17940 1261 ft 174 kts 76°
2026-05-06 18:09 51.15210 -0.15949 2336 ft 194 kts 74°
2026-05-06 18:09 51.15528 -0.13675 3023 ft 227 kts 75°
2026-05-06 18:09 51.15906 -0.11085 3964 ft 252 kts 75°
2026-05-06 18:10 51.16308 -0.08281 5024 ft 266 kts 76°
2026-05-06 18:10 51.16705 -0.05384 5657 ft 269 kts 78°
2026-05-06 18:10 51.16907 -0.02401 5911 ft 271 kts 89°
2026-05-06 18:10 51.16846 0.00608 5997 ft 272 kts 91°
2026-05-06 18:11 51.16781 0.03583 6002 ft 272 kts 91°
2026-05-06 18:11 51.16720 0.06600 5999 ft 272 kts 91°
2026-05-06 18:11 51.16663 0.09625 6014 ft 274 kts 91°
2026-05-06 18:11 51.16606 0.12669 6563 ft 276 kts 91°
2026-05-06 18:12 51.16547 0.15743 7743 ft 278 kts 91°
2026-05-06 18:12 51.16520 0.18853 9078 ft 285 kts 88°
2026-05-06 18:12 51.16534 0.22059 10305 ft 293 kts 88°
2026-05-06 18:12 51.16557 0.25339 11514 ft 299 kts 88°
2026-05-06 18:13 51.16575 0.28688 12708 ft 305 kts 89°
2026-05-06 18:13 51.16585 0.32064 13881 ft 311 kts 89°
2026-05-06 18:13 51.16591 0.35548 14942 ft 317 kts 89°
2026-05-06 18:13 51.16595 0.39084 16021 ft 322 kts 89°
2026-05-06 18:14 51.16597 0.42696 17077 ft 328 kts 89°
2026-05-06 18:14 51.16597 0.46372 18133 ft 334 kts 90°
2026-05-06 18:14 51.16596 0.50118 19021 ft 342 kts 90°
2026-05-06 18:14 51.16595 0.54032 19390 ft 366 kts 90°
2026-05-06 18:15 51.16592 0.58224 19659 ft 390 kts 90°
2026-05-06 18:15 51.16588 0.62607 20340 ft 398 kts 90°
2026-05-06 18:15 51.16582 0.67037 21207 ft 403 kts 90°
2026-05-06 18:15 51.16574 0.71535 22049 ft 408 kts 90°
2026-05-06 18:16 51.16564 0.76086 22871 ft 413 kts 90°
2026-05-06 18:16 51.16552 0.80686 23680 ft 418 kts 90°
2026-05-06 18:16 51.16538 0.85347 24385 ft 422 kts 90°
2026-05-06 18:16 51.16522 0.90054 25083 ft 426 kts 90°
2026-05-06 18:17 51.16504 0.94792 25761 ft 429 kts 90°
2026-05-06 18:17 51.16484 0.99560 26428 ft 433 kts 90°
2026-05-06 18:17 51.16461 1.04388 27053 ft 437 kts 90°
2026-05-06 18:17 51.16437 1.09189 27652 ft 441 kts 90°
2026-05-06 18:18 51.16410 1.14094 28246 ft 445 kts 90°
2026-05-06 18:18 51.16381 1.19050 28683 ft 449 kts 90°
2026-05-06 18:18 51.16350 1.24025 28802 ft 449 kts 90°
2026-05-06 18:18 51.16317 1.29005 28907 ft 450 kts 90°
2026-05-06 18:19 51.16089 1.39037 29339 ft 455 kts 98°
2026-05-06 18:19 51.15474 1.43973 29969 ft 456 kts 102°
2026-05-06 18:19 51.14805 1.48939 30419 ft 460 kts 102°
2026-05-06 18:20 51.14141 1.53878 30881 ft 463 kts 102°
2026-05-06 18:20 51.13466 1.58893 31389 ft 465 kts 102°
2026-05-06 18:20 51.12790 1.63921 32001 ft 464 kts 102°
2026-05-06 18:20 51.12114 1.68937 32649 ft 462 kts 102°
2026-05-06 18:21 51.11438 1.73938 33279 ft 461 kts 102°
2026-05-06 18:21 51.10759 1.78929 33916 ft 460 kts 102°
2026-05-06 18:21 51.10081 1.83898 34423 ft 459 kts 102°
2026-05-06 18:21 51.09398 1.88873 34715 ft 459 kts 102°
2026-05-06 18:22 51.08716 1.93827 34834 ft 458 kts 102°
2026-05-06 18:22 51.08032 1.98769 34937 ft 458 kts 102°
2026-05-06 18:22 51.06668 2.08586 34965 ft 457 kts 102°
2026-05-06 18:23 51.05284 2.18477 34961 ft 458 kts 102°
2026-05-06 18:23 51.03892 2.28362 34958 ft 458 kts 103°
2026-05-06 18:24 51.02493 2.38235 34959 ft 458 kts 103°
2026-05-06 18:24 51.01095 2.48035 34954 ft 458 kts 103°
2026-05-06 18:25 50.99680 2.57893 34953 ft 458 kts 103°
2026-05-06 18:25 50.98252 2.67772 34953 ft 458 kts 103°
2026-05-06 18:26 50.96821 2.77614 34954 ft 458 kts 103°
2026-05-06 18:26 50.95384 2.87438 34950 ft 457 kts 103°
2026-05-06 18:27 50.93936 2.97267 34944 ft 457 kts 103°
2026-05-06 18:27 50.92479 3.07091 34934 ft 457 kts 104°
2026-05-06 18:28 50.91025 3.16838 34924 ft 458 kts 104°
2026-05-06 18:28 50.89554 3.26638 34920 ft 457 kts 104°
2026-05-06 18:29 50.88076 3.36430 34916 ft 456 kts 104°
2026-05-06 18:29 50.86586 3.46228 34912 ft 456 kts 104°
2026-05-06 18:30 50.85103 3.55934 34911 ft 456 kts 104°
2026-05-06 18:30 50.83604 3.65677 34914 ft 456 kts 104°
2026-05-06 18:31 50.82095 3.75425 34916 ft 456 kts 104°
2026-05-06 18:31 50.80587 3.85113 34916 ft 455 kts 104°
2026-05-06 18:32 50.79062 3.94853 34913 ft 455 kts 104°
2026-05-06 18:32 50.77531 4.04572 34917 ft 455 kts 104°
2026-05-06 18:33 50.76000 4.14230 34919 ft 455 kts 105°
2026-05-06 18:33 50.74479 4.23775 34918 ft 455 kts 105°
2026-05-06 18:34 50.72915 4.33528 34923 ft 455 kts 105°
2026-05-06 18:34 50.71352 4.43218 34922 ft 455 kts 105°
2026-05-06 18:35 50.69785 4.52880 34920 ft 454 kts 105°
2026-05-06 18:35 50.68221 4.62471 34917 ft 454 kts 105°
2026-05-06 18:36 50.66635 4.72133 34903 ft 454 kts 105°
2026-05-06 18:36 50.65046 4.81763 34905 ft 454 kts 105°
2026-05-06 18:37 50.63716 4.89785 34900 ft 454 kts 105°
2026-05-06 18:37 50.61839 5.01034 34903 ft 454 kts 106°
2026-05-06 18:38 50.60498 5.09030 34905 ft 454 kts 106°
2026-05-06 18:38 50.58876 5.18653 34902 ft 454 kts 106°
2026-05-06 18:39 50.56982 5.29813 34911 ft 454 kts 106°
2026-05-06 18:40 50.54799 5.42595 34915 ft 454 kts 106°
2026-05-06 18:40 50.53153 5.52175 34908 ft 454 kts 106°
2026-05-06 18:41 50.51499 5.61744 34900 ft 453 kts 106°
2026-05-06 18:41 50.49836 5.71312 34671 ft 453 kts 106°
2026-05-06 18:41 50.49005 5.76076 34433 ft 451 kts 106°
2026-05-06 18:42 50.48174 5.80824 34191 ft 451 kts 107°
2026-05-06 18:42 50.47350 5.85527 33958 ft 451 kts 107°
2026-05-06 18:42 50.46517 5.90260 33687 ft 451 kts 107°
2026-05-06 18:42 50.45676 5.95028 33404 ft 451 kts 107°
2026-05-06 18:43 50.44837 5.99778 33138 ft 451 kts 107°
2026-05-06 18:43 50.43995 6.04528 32692 ft 451 kts 107°
2026-05-06 18:43 50.43156 6.09245 31979 ft 447 kts 107°
2026-05-06 18:43 50.42321 6.13937 31109 ft 444 kts 107°
2026-05-06 18:44 50.41468 6.18592 30248 ft 445 kts 108°
2026-05-06 18:44 50.40569 6.23206 29307 ft 439 kts 108°
2026-05-06 18:44 50.39671 6.27736 28351 ft 433 kts 108°
2026-05-06 18:44 50.38793 6.32166 27439 ft 430 kts 108°
2026-05-06 18:45 50.37910 6.36632 26687 ft 428 kts 108°
2026-05-06 18:45 50.37035 6.41065 25958 ft 424 kts 108°
2026-05-06 18:45 50.36163 6.45484 25171 ft 421 kts 108°
2026-05-06 18:45 50.35298 6.49856 24395 ft 419 kts 108°
2026-05-06 18:46 50.34440 6.54190 23664 ft 416 kts 108°
2026-05-06 18:46 50.33585 6.58497 22867 ft 412 kts 108°
2026-05-06 18:46 50.32738 6.62756 22083 ft 408 kts 108°
2026-05-06 18:46 50.31898 6.66975 21325 ft 404 kts 108°
2026-05-06 18:47 50.31061 6.71167 20583 ft 400 kts 108°
2026-05-06 18:47 50.30234 6.75300 19859 ft 397 kts 108°
2026-05-06 18:47 50.29411 6.79404 19144 ft 394 kts 108°
2026-05-06 18:47 50.28592 6.83477 18450 ft 390 kts 108°
2026-05-06 18:48 50.27779 6.87515 17707 ft 388 kts 108°
2026-05-06 18:48 50.26972 6.91510 17011 ft 383 kts 108°
2026-05-06 18:48 50.26174 6.95449 16320 ft 379 kts 108°
2026-05-06 18:48 50.25383 6.99349 15641 ft 375 kts 108°
2026-05-06 18:49 50.24599 7.03211 14986 ft 371 kts 108°
2026-05-06 18:49 50.23894 7.07005 14335 ft 368 kts 101°
2026-05-06 18:49 50.23745 7.11022 13687 ft 365 kts 90°
2026-05-06 18:49 50.23722 7.14966 12989 ft 361 kts 90°
2026-05-06 18:50 50.23705 7.18870 12316 ft 358 kts 90°
2026-05-06 18:50 50.23689 7.22689 11666 ft 354 kts 90°
2026-05-06 18:50 50.23670 7.26555 11189 ft 347 kts 90°
2026-05-06 18:50 50.23649 7.30314 11004 ft 354 kts 90°
2026-05-06 18:51 50.23625 7.34133 10885 ft 351 kts 90°
2026-05-06 18:51 50.23600 7.37952 10853 ft 351 kts 90°
2026-05-06 18:51 50.23572 7.41783 10849 ft 352 kts 90°
2026-05-06 18:51 50.23543 7.45602 10848 ft 352 kts 90°
2026-05-06 18:52 50.23513 7.49425 10848 ft 352 kts 90°
2026-05-06 18:52 50.23481 7.53248 10845 ft 352 kts 91°
2026-05-06 18:52 50.23448 7.57081 10843 ft 352 kts 91°
2026-05-06 18:52 50.23415 7.60911 10844 ft 353 kts 91°
2026-05-06 18:53 50.23380 7.64736 10841 ft 353 kts 91°
2026-05-06 18:53 50.23344 7.68575 10839 ft 353 kts 91°
2026-05-06 18:53 50.23306 7.72420 10837 ft 353 kts 91°
2026-05-06 18:53 50.23267 7.76255 10836 ft 353 kts 91°
2026-05-06 18:54 50.23226 7.80090 10831 ft 353 kts 91°
2026-05-06 18:54 50.23185 7.83862 10831 ft 353 kts 91°
2026-05-06 18:54 50.23142 7.87687 10836 ft 352 kts 91°
2026-05-06 18:54 50.23099 7.91488 10833 ft 342 kts 92°
2026-05-06 18:55 50.23057 7.95098 10823 ft 326 kts 92°
2026-05-06 18:55 50.23013 7.98665 10821 ft 330 kts 92°
2026-05-06 18:55 50.22968 8.02241 10824 ft 329 kts 92°
2026-05-06 18:55 50.22922 8.05819 10832 ft 329 kts 92°
2026-05-06 18:56 50.22875 8.09388 10832 ft 329 kts 92°
2026-05-06 18:56 50.22827 8.12963 10820 ft 329 kts 92°
2026-05-06 18:56 50.22779 8.16482 10831 ft 329 kts 92°
2026-05-06 18:56 50.22729 8.20019 10819 ft 329 kts 92°
2026-05-06 18:57 50.22677 8.23580 10822 ft 329 kts 92°
2026-05-06 18:57 50.22628 8.26931 10829 ft 328 kts 92°
2026-05-06 18:57 50.22575 8.30495 10822 ft 328 kts 92°
2026-05-06 18:57 50.22521 8.34069 10826 ft 329 kts 92°
2026-05-06 18:58 50.22465 8.37638 10818 ft 328 kts 92°
2026-05-06 18:58 50.22409 8.41196 10827 ft 329 kts 92°
2026-05-06 18:58 50.22351 8.44770 10828 ft 328 kts 92°
2026-05-06 18:58 50.22293 8.48335 10820 ft 329 kts 92°
2026-05-06 18:59 50.22232 8.51901 10828 ft 328 kts 92°
2026-05-06 18:59 50.22172 8.55423 10825 ft 328 kts 93°
2026-05-06 18:59 50.22111 8.58976 10813 ft 315 kts 93°
2026-05-06 18:59 50.22054 8.62327 10595 ft 304 kts 93°
2026-05-06 19:00 50.21997 8.65572 10158 ft 302 kts 93°
2026-05-06 19:00 50.21936 8.68847 9693 ft 301 kts 93°
2026-05-06 19:00 50.21875 8.72110 9217 ft 299 kts 93°
2026-05-06 19:00 50.21813 8.75342 8748 ft 297 kts 93°
2026-05-06 19:01 50.21750 8.78549 8307 ft 294 kts 93°
2026-05-06 19:01 50.21688 8.81732 7844 ft 293 kts 93°
2026-05-06 19:01 50.21628 8.84891 7423 ft 290 kts 92°
2026-05-06 19:01 50.21797 8.88024 6967 ft 290 kts 79°
2026-05-06 19:02 50.22372 8.91025 6541 ft 288 kts 69°
2026-05-06 19:02 50.23073 8.93946 6108 ft 286 kts 70°
2026-05-06 19:02 50.23746 8.96831 5675 ft 284 kts 73°
2026-05-06 19:02 50.23898 8.99896 5242 ft 279 kts 101°
2026-05-06 19:03 50.23166 9.02607 5060 ft 277 kts 129°
2026-05-06 19:03 50.21719 9.04501 4989 ft 269 kts 158°
2026-05-06 19:03 50.19924 9.05100 4986 ft 264 kts 185°
2026-05-06 19:03 50.18193 9.04311 4984 ft 260 kts 213°
2026-05-06 19:04 50.16836 9.02489 4992 ft 258 kts 230°
2026-05-06 19:04 50.15842 9.00177 4991 ft 257 kts 243°
2026-05-06 19:04 50.15126 8.97627 4993 ft 257 kts 249°
2026-05-06 19:04 50.14511 8.95014 4999 ft 257 kts 250°
2026-05-06 19:05 50.13890 8.92410 4998 ft 256 kts 250°
2026-05-06 19:05 50.13274 8.89820 4996 ft 257 kts 250°
2026-05-06 19:05 50.12655 8.87223 4994 ft 251 kts 250°
2026-05-06 19:05 50.12064 8.84741 4897 ft 239 kts 250°
2026-05-06 19:06 50.11493 8.82342 4587 ft 236 kts 250°
2026-05-06 19:06 50.10929 8.79978 4232 ft 228 kts 250°
2026-05-06 19:06 50.10386 8.77697 3901 ft 220 kts 250°
2026-05-06 19:06 50.09866 8.75515 3598 ft 209 kts 250°
2026-05-06 19:07 50.09381 8.73485 3299 ft 189 kts 251°
2026-05-06 19:07 50.08954 8.71694 3071 ft 168 kts 251°
2026-05-06 19:07 50.08545 8.69974 2837 ft 170 kts 252°
2026-05-06 19:07 50.08137 8.68264 2577 ft 170 kts 252°
2026-05-06 19:08 50.07731 8.66559 2329 ft 170 kts 252°
2026-05-06 19:08 50.07321 8.64841 2086 ft 172 kts 252°
2026-05-06 19:08 50.06923 8.63180 1833 ft 150 kts 252°
2026-05-06 19:08 50.06579 8.61739 1622 ft 136 kts 253°
2026-05-06 19:09 50.06257 8.60387 1427 ft 133 kts 252°
2026-05-06 19:09 50.05939 8.59050 1229 ft 129 kts 253°
2026-05-06 19:09 50.05632 8.57766 1006 ft 128 kts 252°
2026-05-06 19:09 50.05322 8.56499 835 ft 129 kts 252°
2026-05-06 19:10 50.05021 8.55167 690 ft 130 kts 253°
2026-05-06 19:10 50.04722 8.53932 509 ft 117 kts 251°
2026-05-06 19:10 50.04410 8.52640 373 ft 137 kts 250°
2026-05-06 19:10 50.04126 8.51441 332 ft 74 kts 249°
2026-05-06 19:11 50.03978 8.51013 324 ft 42 kts 230°
2026-05-06 19:11 50.03839 8.50843 328 ft 0 kts 198°
2026-05-06 19:11 50.03830 8.50839 328 ft 2 kts 195°
2026-05-06 19:11 50.03786 8.50860 330 ft 12 kts 134°
2026-05-06 19:12 50.03790 8.50960 331 ft 11 kts 69°
2026-05-06 19:12 50.03828 8.51112 332 ft 18 kts 69°
2026-05-06 19:12 50.03878 8.51327 335 ft 24 kts 70°
2026-05-06 19:12 50.03945 8.51597 334 ft 29 kts 68°
2026-05-06 19:13 50.04017 8.51900 336 ft 32 kts 69°
2026-05-06 19:13 50.04091 8.52214 344 ft 28 kts 70°
2026-05-06 19:13 50.04163 8.52516 349 ft 31 kts 69°
2026-05-06 19:13 50.04241 8.52844 360 ft 33 kts 71°
2026-05-06 19:14 50.04320 8.53168 366 ft 26 kts 71°
2026-05-06 19:14 50.04364 8.53372 371 ft 10 kts 65°
2026-05-06 19:14 50.04392 8.53466 374 ft 10 kts 86°
2026-05-06 19:14 50.04395 8.53542 375 ft 13 kts 85°
2026-05-06 19:15 50.04411 8.53733 375 ft 20 kts 83°
2026-05-06 19:15 50.04431 8.53978 375 ft 26 kts 83°
2026-05-06 19:15 50.04447 8.54263 375 ft 26 kts 86°
2026-05-06 19:15 50.04442 8.54520 369 ft 22 kts 99°
2026-05-06 19:16 50.04349 8.54734 362 ft 21 kts 147°
2026-05-06 19:16 50.04336 8.54747 363 ft 0 kts 146°
2026-05-06 19:18 50.04319 8.54765 357 ft 9 kts 147°
2026-05-06 19:18 50.04231 8.54817 356 ft 19 kts 159°
2026-05-06 19:18 50.04105 8.54888 352 ft 7 kts 159°
2026-05-06 19:18 50.04074 8.54906 350 ft 0 kts 159°
2026-05-06 19:19 50.04068 8.54910 356 ft 4 kts 159°
2026-05-06 19:20 50.04026 8.54936 353 ft 9 kts 159°
2026-05-06 19:20 50.03946 8.54984 357 ft 17 kts 159°
2026-05-06 19:20 50.03850 8.55071 353 ft 3 kts 104°
2026-05-06 19:20 50.03857 8.55146 357 ft 10 kts 69°
2026-05-06 19:21 50.03892 8.55283 351 ft 17 kts 68°
2026-05-06 19:21 50.03936 8.55479 353 ft 24 kts 70°
2026-05-06 19:21 50.04003 8.55758 357 ft 29 kts 75°
2026-05-06 19:21 50.04040 8.55912 355 ft 14 kts 70°
2026-05-06 19:22 50.04083 8.56087 358 ft 21 kts 68°
2026-05-06 19:22 50.04107 8.56185 359 ft 0 kts 68°
2026-05-06 19:24 50.04108 8.56189 361 ft 3 kts 68°
2026-05-06 19:24 50.04124 8.56258 358 ft 11 kts 71°
2026-05-06 19:24 50.04159 8.56406 359 ft 18 kts 69°
2026-05-06 19:24 50.04209 8.56618 358 ft 24 kts 69°
2026-05-06 19:25 50.04269 8.56871 364 ft 26 kts 72°
2026-05-06 19:25 50.04333 8.57140 363 ft 26 kts 69°
2026-05-06 19:25 50.04380 8.57325 362 ft 30 kts 69°
2026-05-06 19:25 50.04402 8.57415 364 ft 3 kts 69°
2026-05-06 19:26 50.04420 8.57488 363 ft 11 kts 69°
2026-05-06 19:26 50.04481 8.57553 365 ft 10 kts 352°
2026-05-06 19:26 50.04571 8.57510 360 ft 16 kts 335°
2026-05-06 19:26 50.04651 8.57470 360 ft 5 kts 22°
2026-05-06 19:27 50.04698 8.57522 359 ft 4 kts 31°
2026-05-06 19:27 50.04723 8.57543 360 ft 2 kts 28°
2026-05-06 19:27 50.04728 8.57547 359 ft 0 kts 29°